Date,TemperatureHighF,TemperatureAvgF,TemperatureLowF,DewpointHighF,DewpointAvgF,DewpointLowF,HumidityHigh,HumidityAvg,HumidityLow,PressureMaxIn,PressureMinIn,WindSpeedMaxMPH,WindSpeedAvgMPH,GustSpeedMaxMPH,PrecipitationSumIn
2013-1-1,79.7,74.1,68.5,64.2,61.3,58.2,72,65,58,30.14,30.01,17,5,17,0.00
2013-1-2,79.5,71.5,64.0,67.8,63.0,57.5,82,75,66,30.02,29.94,11,2,11,0.00
2013-1-3,81.1,73.8,67.6,69.1,65.6,61.6,82,76,65,30.08,29.98,12,3,12,0.00
2013-1-4,79.7,73.0,68.0,70.0,66.0,62.3,83,79,71,30.17,30.05,8,2,8,0.00
2013-1-5,74.3,70.5,67.8,68.4,65.1,62.5,85,83,78,30.17,30.08,8,1,8,0.31
2013-1-6,81.0,74.0,66.9,70.9,67.2,61.9,86,80,71,30.13,30.01,14,4,14,0.00
2013-1-7,75.6,72.0,68.7,68.4,66.3,63.7,84,82,76,30.08,30.01,8,1,8,0.11
2013-1-8,82.2,76.2,71.6,72.4,69.2,66.3,85,79,71,30.12,30.00,13,4,13,0.25
2013-1-9,83.7,78.4,74.8,71.8,69.4,67.0,82,74,67,30.22,30.06,14,7,14,0.00
2013-1-10,83.5,77.4,74.5,68.6,66.3,64.1,77,69,58,30.22,30.13,16,7,16,0.00
2013-1-11,82.6,76.8,73.9,70.1,66.9,65.3,77,72,65,30.19,30.10,13,6,13,0.00
2013-1-12,82.4,76.6,73.8,68.4,65.8,63.7,75,69,61,30.11,30.05,12,4,12,0.00
2013-1-13,82.6,76.3,72.9,68.5,64.8,61.7,75,68,61,30.08,30.01,12,3,12,0.00
2013-1-14,82.2,76.3,72.3,66.6,64.4,61.1,73,67,58,30.12,30.06,13,5,13,0.00
2013-1-15,82.6,76.5,73.4,67.8,65.2,61.9,76,68,60,30.08,30.00,10,5,10,0.00
2013-1-16,82.0,75.7,68.9,69.4,65.8,61.0,81,72,62,30.06,29.97,12,4,12,0.00
2013-1-17,79.9,72.5,64.0,71.1,65.1,53.4,85,78,68,30.03,29.93,15,3,15,0.31
2013-1-18,71.1,65.4,56.5,59.5,53.7,46.4,71,66,60,30.16,30.02,12,4,12,0.00
2013-1-19,73.2,70.6,68.0,66.7,63.1,58.7,85,77,67,30.11,30.00,9,2,9,0.34
2013-1-20,77.9,71.6,65.8,68.2,64.6,60.9,86,79,71,30.04,29.96,9,2,9,0.25
2013-1-21,79.9,71.8,67.5,70.2,65.7,62.1,85,81,70,30.01,29.90,9,2,9,0.39
2013-1-22,76.1,69.8,64.4,62.8,58.8,53.0,83,69,57,30.16,29.94,15,4,15,0.00
2013-1-23,76.3,69.4,63.1,59.9,55.5,52.5,72,62,51,30.22,30.14,10,3,10,0.00
2013-1-24,75.2,66.9,61.0,56.1,53.3,48.2,75,62,48,30.21,30.14,9,2,9,0.00
2013-1-25,75.4,67.6,60.6,61.5,55.8,50.7,72,66,56,30.30,30.06,8,1,8,0.00
2013-1-26,76.1,69.2,61.0,62.4,58.4,52.8,80,69,55,30.18,30.11,8,2,8,0.00
2013-1-27,78.6,73.6,68.2,62.5,61.1,57.4,72,65,55,30.21,30.11,9,3,9,0.00
2013-1-28,82.0,75.8,72.1,67.1,64.1,60.3,75,67,59,30.24,30.15,12,6,12,0.00
2013-1-29,81.5,75.7,72.7,70.0,66.3,64.2,79,73,65,30.15,30.07,14,6,14,0.00
2013-1-30,81.0,75.5,71.8,68.0,65.1,62.3,80,70,63,30.08,29.93,16,7,16,0.00
2013-1-31,72.9,69.4,61.2,67.6,58.6,43.2,85,69,51,30.12,29.90,9,2,9,0.00